Flag for Germany Weather past 2 weeks in Weyhe, Lower Saxony, Germany

Now
73 °F

Sunny.


Feels Like: 76 °F
Forecast: 55 / 75 °F
Wind: 6 mph from Northwest

Location: Bremen Airport

Current Time: Aug 4, 2015 at 10:07:02 AM

Latest Report: Aug 4, 2015 at 9:20 AM


Visibility: 10 mi

Pressure: 29.86 "Hg

Humidity: 61%

Dew point: 59 °F

Location of WeyheLocation

Historic Weather in Weyhe — Graph

°F

Weyhe temperature yesterday

Maximum temperature yesterday: 88 °F (at 3:50 PM)
Minimum temperature yesterday: 57 °F (at 2:20 AM)
Average temperature yesterday: 72 °F

Past Weeks' High & Low Weather Summary

 TemperatureHumidityPressure
High88 °F (Aug 3, 3:50 PM)100% (Jul 21, 2:50 AM)30.15 "Hg (Jul 21, 2:50 AM)
Low46 °F (Aug 2, 5:50 AM)27% (Aug 3, 3:50 PM)29.42 "Hg (Jul 25, 12:20 PM)
Average63 °F72%29.85 "Hg
* Reported Jul 20 8:20 AM — Aug 4 8:50 AM, Weyhe, Weather by CustomWeather, © 2015

Note: Actual official high and low records may vary slightly from our data, if they occured in-between our weather recording intervals... More about our weather records

Advertising

Weyhe weather history for previous 24 hours

 ConditionsComfort  
Time TempWeatherWind HumidityBarometerVisibility
8:50 AM
Tue, Aug 4
72 °FSunny.13 mph65%29.86 "Hg10 mi
8:20 AM72 °FSunny.7 mph65%29.83 "Hg10 mi
7:50 AM68 °FSunny.7 mph69%29.83 "Hg10 mi
7:20 AM68 °FSunny.8 mph69%29.83 "Hg10 mi
6:50 AM66 °FSunny.7 mph73%29.86 "Hg10 mi
6:20 AM64 °FClear.6 mph73%29.86 "Hg10 mi
5:50 AM64 °FClear.6 mph73%29.83 "Hg10 mi
5:20 AM64 °FPassing clouds.5 mph73%29.86 "HgN/A
4:50 AM64 °FClear.5 mph73%29.86 "Hg10 mi
4:20 AM66 °FClear.3 mph73%29.89 "Hg10 mi
3:50 AM66 °FClear.6 mph73%29.89 "Hg10 mi
3:20 AM63 °FClear.2 mph83%29.89 "Hg10 mi
2:50 AM68 °FClear.No wind64%29.92 "Hg10 mi
2:20 AM70 °FClear.6 mph64%29.89 "Hg10 mi
1:50 AM68 °FClear.5 mph64%29.92 "Hg10 mi
1:20 AM72 °FClear.6 mph61%29.92 "Hg10 mi
12:50 AM70 °FClear.6 mph64%29.92 "Hg10 mi
12:20 AM73 °FClear.6 mph53%29.92 "Hg10 mi
11:50 PM
Mon, Aug 3
73 °FClear.6 mph57%29.92 "Hg10 mi
11:20 PM73 °FClear.6 mph53%29.92 "Hg10 mi
10:50 PM75 °FClear.6 mph50%29.92 "Hg10 mi
10:20 PM77 °FClear.6 mph51%29.92 "Hg10 mi
9:50 PM77 °FSunny.6 mph51%29.92 "Hg10 mi
9:20 PM81 °FSunny.5 mph42%29.92 "Hg10 mi
8:50 PM82 °FSunny.3 mph40%29.92 "Hg10 mi
8:20 PM81 °FSunny.2 mph45%29.92 "Hg10 mi
7:50 PM82 °FSunny.3 mph42%29.92 "Hg10 mi
7:20 PM84 °FPleasantly warm.7 mph40%29.92 "HgN/A
6:50 PM84 °FSunny.10 mph37%29.92 "Hg10 mi
6:20 PM86 °FPassing clouds.12 mph33%29.92 "HgN/A
5:50 PM86 °FPassing clouds.13 mph31%29.92 "HgN/A
5:20 PM88 °FPassing clouds.10 mph29%29.95 "HgN/A
4:50 PM88 °FSunny.10 mph29%29.95 "Hg10 mi
4:20 PM84 °FPassing clouds.9 mph37%29.95 "HgN/A
3:50 PM88 °FPassing clouds.9 mph27%29.95 "HgN/A
3:20 PM84 °FPassing clouds.15 mph33%29.98 "HgN/A
2:20 PM86 °FPassing clouds.10 mph31%29.98 "HgN/A
1:50 PM84 °FPassing clouds.8 mph37%29.98 "HgN/A
1:20 PM84 °FPassing clouds.9 mph37%29.98 "HgN/A
12:50 PM81 °FSunny.8 mph42%30.01 "Hg10 mi
12:20 PM81 °FPassing clouds.8 mph45%30.01 "HgN/A
11:50 AM77 °FPassing clouds.10 mph47%30.01 "HgN/A
11:20 AM77 °FPassing clouds.10 mph47%30.01 "HgN/A
10:50 AM73 °FPassing clouds.10 mph50%30.01 "HgN/A
10:20 AM73 °FSunny.12 mph53%30.01 "Hg10 mi
Weather by CustomWeather, © 2015

See weather overviewHow to use our weather pages